Preview of NWS' New Version of Forecast
This preview is not operational and should not be used for support decisions.

Regional Weather Roundup (RWR)

Issued by National Weather Service (NWS)

                            
000
ASCA42 TJSJ 202010
RWRPR 
PUERTO RICO/U.S. VIRGIN ISLANDS HOURLY WEATHER ROUNDUP
NATIONAL WEATHER SERVICE SAN JUAN PR
400 PM AST SAT APR 20 2019

PRZ001>002-007>008-010-202100-
PUERTO RICO
  
CITY           SKY/WX    TMP DP  RH WIND       PRES   REMARKS
SAN JUAN LMM   MOSUNNY   84  70  61 E23G29    30.02F                  
AGUADILLA      CLOUDY    82  70  65 E10G31    30.03S                  
CEIBA          SUNNY     84  70  61 MISG      30.05F                  
$$

VIZ001>002-202100-
U.S. VIRGIN ISLANDS
  
CITY           SKY/WX    TMP DP  RH WIND       PRES   REMARKS
CHARLOTTE AMA  MOSUNNY   84  68  58 E15G22    30.03S                  
CHRISTIANSTED  MOSUNNY   84  68  58 E18       30.03S                  
$$

HOURLY WEATHER ROUNDUP FOR THE NEWS MEDIA
  
CITY           SKY/WX    TMP DP  RH WIND       PRES   REMARKS
ORLANDO        FAIR      74  37  26 W21G29    29.95F                  
NEW YORK       CLOUDY    57  57 100 S20G31    29.77S                  
NEWARK         CLOUDY    61  56  83 SE10      29.73S                  
CHICAGO        FAIR      63  11  13 N17G26    29.80F                  
HARTFORD       CLOUDY    61  61 100 S10G20    29.91S FOG              
BOSTON         LGT RAIN  69  64  84 S20       29.87S                  
DALLAS         SUNNY     78  42  27 S10       30.01F                  
PHILADELPHIA   PTSUNNY   71  49  45 S21G26    29.69R                  
LOS ANGELES    CLOUDY    60  51  72 SW8       30.02S                  
WASHINGTON DC  PTSUNNY   71  45  39 S16G24    29.63S